| time (UTC) | temp F | wind direction | speed knots | gust knots | rain 1hr in | rain 24hr in | rain mn in | humidity % | barometer mb |
| 20260903165305 | 89 | 100 | 5.2 | 7.0 | 0.00 | 0.00 | 0.00 | 49 | 1014.9 |
| 20260903164802 | 89 | 69 | 6.1 | 12.2 | 0.00 | 0.00 | 0.00 | 49 | 1015.4 |
| 20260903164301 | 89 | 78 | 4.3 | 8.7 | 0.00 | 0.00 | 0.00 | 49 | 1015.7 |
| 20260903163802 | 89 | 117 | 4.3 | 8.7 | 0.00 | 0.00 | 0.00 | 50 | 1015.7 |
| 20260903163302 | 88 | 168 | 4.3 | 12.2 | 0.00 | 0.00 | 0.00 | 50 | 1015.7 |
| 20260903162801 | 88 | 139 | 5.2 | 7.8 | 0.00 | 0.00 | 0.00 | 51 | 1015.6 |
| 20260903162306 | 88 | 145 | 5.2 | 8.7 | 0.00 | 0.00 | 0.00 | 51 | 1015.5 |
| 20260903161802 | 88 | 45 | 4.3 | 10.4 | 0.00 | 0.00 | 0.00 | 51 | 1015.5 |
| 20260903161302 | 87 | 302 | 4.3 | 8.7 | 0.00 | 0.00 | 0.00 | 51 | 1015.5 |
| 20260903160802 | 87 | 73 | 5.2 | 11.3 | 0.00 | 0.00 | 0.00 | 52 | 1015.6 |
| 20260903160301 | 87 | 122 | 5.2 | 17.4 | 0.00 | 0.00 | 0.00 | 51 | 1015.7 |
| 20260903155802 | 86 | 114 | 6.1 | 10.4 | 0.00 | 0.00 | 0.00 | 53 | 1015.7 |
| 20260903154802 | 86 | 100 | 5.2 | 11.3 | 0.00 | 0.00 | 0.00 | 53 | 1015.7 |
| 20260903154302 | 86 | 100 | 4.3 | 11.3 | 0.00 | 0.00 | 0.00 | 54 | 1015.7 |
| 20260903153802 | 86 | 100 | 4.3 | 10.4 | 0.00 | 0.00 | 0.00 | 57 | 1015.7 |
| 20260903153302 | 86 | 100 | 4.3 | 6.1 | 0.00 | 0.00 | 0.00 | 57 | 1015.7 |
| 20260903152802 | 85 | 100 | 2.6 | 7.0 | 0.00 | 0.00 | 0.00 | 58 | 1015.7 |
| 20260903152301 | 85 | 145 | 2.6 | 11.3 | 0.00 | 0.00 | 0.00 | 59 | 1015.7 |
| 20260903151802 | 85 | 55 | 2.6 | 11.3 | 0.00 | 0.00 | 0.00 | 59 | 1015.7 |
| 20260903151302 | 84 | 302 | 4.3 | 8.7 | 0.00 | 0.00 | 0.00 | 59 | 1015.7 |
| 20260903150801 | 84 | 46 | 4.3 | 8.7 | 0.00 | 0.00 | 0.00 | 60 | 1015.7 |
| 20260903150301 | 83 | 100 | 4.3 | 7.0 | 0.00 | 0.00 | 0.00 | 60 | 1015.7 |
| 20260903145802 | 83 | 125 | 2.6 | 10.4 | 0.00 | 0.00 | 0.00 | 60 | 1015.7 |
| 20260903144802 | 83 | 220 | 2.6 | 5.2 | 0.00 | 0.00 | 0.00 | 60 | 1015.7 |
| 20260903144302 | 82 | 145 | 2.6 | 5.2 | 0.00 | 0.00 | 0.00 | 61 | 1015.7 |
| 20260903143802 | 82 | 172 | 1.7 | 5.2 | 0.00 | 0.00 | 0.00 | 61 | 1015.7 |
| 20260903143302 | 82 | 145 | 1.7 | 4.3 | 0.00 | 0.00 | 0.00 | 62 | 1015.7 |
| 20260903142305 | 82 | 145 | 0.9 | 4.3 | 0.00 | 0.00 | 0.00 | 63 | 1015.6 |
| 20260903141802 | 81 | 32 | 0.9 | 2.6 | 0.00 | 0.00 | 0.00 | 65 | 1015.6 |
| 20260903141302 | 81 | 235 | 0.9 | 1.7 | 0.00 | 0.00 | 0.00 | 66 | 1015.6 |
| 20260903140302 | 80 | 122 | 0.9 | 2.6 | 0.00 | 0.00 | 0.00 | 67 | 1015.6 |
| 20260903135802 | 80 | 168 | 1.7 | 2.6 | 0.00 | 0.00 | 0.00 | 67 | 1015.6 |
| 20260903135302 | 80 | 235 | 1.7 | 2.6 | 0.00 | 0.00 | 0.00 | 67 | 1015.6 |
| 20260903134802 | 79 | 130 | 1.7 | 4.3 | 0.00 | 0.00 | 0.00 | 68 | 1015.6 |
| 20260903134302 | 79 | 100 | 1.7 | 2.6 | 0.00 | 0.00 | 0.00 | 69 | 1015.6 |
| 20260903133801 | 79 | 143 | 0.9 | 2.6 | 0.00 | 0.00 | 0.00 | 70 | 1015.6 |
| 20260903133302 | 78 | 145 | 0.9 | 2.6 | 0.00 | 0.00 | 0.00 | 70 | 1015.6 |
| 20260903132801 | 78 | 125 | 0.0 | 0.0 | 0.00 | 0.00 | 0.00 | 70 | 1015.7 |
| 20260903132306 | 78 | 212 | 0.9 | 1.7 | 0.00 | 0.00 | 0.00 | 71 | 1015.7 |
| 20260903131802 | 77 | 123 | 0.9 | 1.7 | 0.00 | 0.00 | 0.00 | 71 | 1015.7 |
| 20260903131302 | 77 | 145 | 0.9 | 2.6 | 0.00 | 0.00 | 0.00 | 71 | 1015.7 |
| 20260903130802 | 77 | 325 | 0.9 | 0.0 | 0.00 | 0.00 | 0.00 | 71 | 1015.6 |
| 20260903130302 | 76 | 100 | 0.0 | 1.7 | 0.00 | 0.00 | 0.00 | 72 | 1015.6 |
| 20260903125305 | 76 | 78 | 0.9 | 0.0 | 0.00 | 0.00 | 0.00 | 73 | 1015.6 |
| 20260903124802 | 76 | 90 | 0.9 | 2.6 | 0.00 | 0.00 | 0.00 | 72 | 1015.5 |
| 20260903124302 | 76 | 145 | 0.9 | 2.6 | 0.00 | 0.00 | 0.00 | 72 | 1015.4 |
| 20260903123302 | 75 | 168 | 0.0 | 0.0 | 0.00 | 0.00 | 0.00 | 73 | 1015.4 |
| 20260903122802 | 75 | 25 | 0.0 | 0.0 | 0.00 | 0.00 | 0.00 | 74 | 1015.6 |
| 20260903122305 | 75 | 145 | 0.0 | 0.0 | 0.00 | 0.00 | 0.00 | 74 | 1015.6 |
| 20260903121802 | 75 | 78 | 0.0 | 0.0 | 0.00 | 0.00 | 0.00 | 74 | 1015.6 |
| 20260903120803 | 75 | 159 | 0.0 | 0.0 | 0.00 | 0.00 | 0.00 | 74 | 1015.2 |
| 20260903120302 | 75 | 168 | 0.0 | 0.0 | 0.00 | 0.00 | 0.00 | 74 | 1015.2 |
| 20260903115802 | 74 | 123 | 0.0 | 0.0 | 0.00 | 0.00 | 0.00 | 74 | 1015.2 |
| 20260903115305 | 74 | 32 | 0.0 | 0.0 | 0.00 | 0.00 | 0.00 | 73 | 1015.2 |
| 20260903113803 | 74 | 119 | 0.0 | 1.7 | 0.00 | 0.00 | 0.00 | 72 | 1015.2 |
| 20260903112802 | 74 | 201 | 0.0 | 1.7 | 0.00 | 0.00 | 0.00 | 72 | 1015.2 |
| 20260903112305 | 75 | 100 | 0.0 | 0.0 | 0.00 | 0.00 | 0.00 | 72 | 1015.2 |
| 20260903111802 | 75 | 100 | 0.9 | 0.0 | 0.00 | 0.00 | 0.00 | 72 | 1015.2 |
| 20260903111302 | 75 | 100 | 0.9 | 0.0 | 0.00 | 0.00 | 0.00 | 72 | 1015.5 |
| 20260903110802 | 75 | 140 | 0.0 | 1.7 | 0.00 | 0.00 | 0.00 | 71 | 1015.4 |
| 20260903110302 | 75 | 100 | 0.0 | 0.0 | 0.00 | 0.00 | 0.00 | 71 | 1015.4 |
| 20260903105802 | 75 | 125 | 0.0 | 0.0 | 0.00 | 0.00 | 0.00 | 71 | 1015.4 |
| 20260903105305 | 75 | 122 | 0.0 | 0.0 | 0.00 | 0.00 | 0.00 | 71 | 1015.4 |
| 20260903062305 | 79 | 212 | 0.0 | 0.0 | 0.00 | 0.00 | 0.00 | 62 | 1015.2 |
| 20260903061802 | 79 | 115 | 0.9 | 2.6 | 0.00 | 0.00 | 0.00 | 62 | 1015.2 |
| 20260903061302 | 80 | 145 | 0.9 | 0.0 | 0.00 | 0.00 | 0.00 | 62 | 1015.2 |
| 20260903055306 | 80 | 212 | 0.9 | 0.0 | 0.00 | 0.00 | 0.00 | 61 | 1015.1 |
| 20260903054802 | 80 | 126 | 0.9 | 2.6 | 0.00 | 0.00 | 0.00 | 61 | 1015.2 |
| 20260903054302 | 80 | 145 | 0.9 | 2.6 | 0.00 | 0.00 | 0.00 | 61 | 1015.2 |
| 20260903053802 | 80 | 118 | 0.9 | 1.7 | 0.00 | 0.00 | 0.00 | 60 | 1015.2 |
| 20260903053302 | 80 | 104 | 0.9 | 2.6 | 0.00 | 0.00 | 0.00 | 60 | 1015.2 |
| 20260903052802 | 80 | 119 | 0.9 | 1.7 | 0.00 | 0.00 | 0.00 | 60 | 1014.9 |
| 20260903052302 | 80 | 122 | 0.9 | 1.7 | 0.00 | 0.00 | 0.00 | 60 | 1014.9 |
| 20260903051801 | 81 | 99 | 1.7 | 2.6 | 0.00 | 0.00 | 0.00 | 60 | 1014.9 |
| 20260903051302 | 81 | 109 | 1.7 | 4.3 | 0.00 | 0.00 | 0.00 | 59 | 1014.9 |
| 20260903050818 | 81 | 121 | 0.9 | 4.3 | 0.00 | 0.00 | 0.00 | 59 | 1015.2 |
| 20260903050302 | 81 | 100 | 0.9 | 2.6 | 0.00 | 0.00 | 0.00 | 59 | 1015.2 |
| 20260903045802 | 81 | 148 | 0.9 | 1.7 | 0.00 | 0.00 | 0.00 | 59 | 1015.2 |
| 20260903045306 | 81 | 100 | 1.7 | 2.6 | 0.00 | 0.00 | 0.00 | 59 | 1015.2 |
| 20260903044802 | 82 | 123 | 0.9 | 2.6 | 0.00 | 0.00 | 0.00 | 59 | 1015.0 |
| 20260903044302 | 82 | 140 | 0.9 | 4.3 | 0.00 | 0.00 | 0.00 | 59 | 1015.0 |
| 20260903043802 | 82 | 102 | 0.9 | 2.6 | 0.00 | 0.00 | 0.00 | 58 | 1015.0 |
| 20260903043302 | 82 | 107 | 0.0 | 1.7 | 0.00 | 0.00 | 0.00 | 58 | 1015.0 |
| 20260903042802 | 82 | 278 | 0.0 | 1.7 | 0.00 | 0.00 | 0.00 | 58 | 1015.0 |
| 20260903042305 | 82 | 148 | 0.9 | 1.7 | 0.00 | 0.00 | 0.00 | 58 | 1015.0 |
| 20260903041802 | 82 | 147 | 0.9 | 1.7 | 0.00 | 0.00 | 0.00 | 57 | 1015.0 |
| 20260903041302 | 82 | 251 | 0.9 | 4.3 | 0.00 | 0.00 | 0.00 | 58 | 1015.0 |
| 20260903040804 | 82 | 100 | 0.9 | 4.3 | 0.00 | 0.00 | 0.00 | 57 | 1014.9 |
| 20260903035802 | 83 | 102 | 0.9 | 4.3 | 0.00 | 0.00 | 0.00 | 57 | 1015.1 |
| 20260903035306 | 83 | 145 | 0.9 | 2.6 | 0.00 | 0.00 | 0.00 | 57 | 1015.1 |
| 20260903034802 | 83 | 148 | 0.9 | 4.3 | 0.00 | 0.00 | 0.00 | 57 | 1015.2 |
| 20260903034302 | 83 | 115 | 0.0 | 0.0 | 0.00 | 0.00 | 0.00 | 57 | 1015.2 |
| 20260903033802 | 83 | 233 | 0.0 | 0.0 | 0.00 | 0.00 | 0.00 | 57 | 1015.2 |
| 20260903033302 | 83 | 150 | 0.0 | 0.0 | 0.00 | 0.00 | 0.00 | 57 | 1015.2 |
| 20260903032803 | 83 | 146 | 0.9 | 4.3 | 0.00 | 0.00 | 0.00 | 57 | 1015.1 |
| 20260903032305 | 83 | 159 | 0.9 | 2.6 | 0.00 | 0.00 | 0.00 | 57 | 1015.1 |
| 20260903031802 | 83 | 100 | 0.0 | 2.6 | 0.00 | 0.00 | 0.00 | 57 | 1015.1 |
| 20260903031302 | 83 | 145 | 0.9 | 1.7 | 0.00 | 0.00 | 0.00 | 57 | 1015.1 |
| 20260903030802 | 83 | 145 | 0.9 | 4.3 | 0.00 | 0.00 | 0.00 | 57 | 1015.1 |
| 20260903030302 | 83 | 106 | 0.9 | 4.3 | 0.00 | 0.00 | 0.00 | 57 | 1015.1 |
| 20260903025305 | 84 | 109 | 0.9 | 2.6 | 0.00 | 0.00 | 0.00 | 56 | 1015.1 |
| 20260903024302 | 84 | 128 | 0.0 | 0.0 | 0.00 | 0.00 | 0.00 | 56 | 1014.8 |
| 20260903023803 | 84 | 13 | 0.0 | 1.7 | 0.00 | 0.00 | 0.00 | 55 | 1014.8 |
| 20260903023302 | 84 | 58 | 0.0 | 1.7 | 0.00 | 0.00 | 0.00 | 55 | 1014.8 |
| 20260903022802 | 84 | 214 | 0.9 | 2.6 | 0.00 | 0.00 | 0.00 | 55 | 1014.7 |
| 20260903022305 | 85 | 224 | 0.9 | 4.3 | 0.00 | 0.00 | 0.00 | 55 | 1014.7 |
| 20260903021802 | 85 | 164 | 0.0 | 4.3 | 0.00 | 0.00 | 0.00 | 55 | 1014.7 |
| 20260903021302 | 85 | 337 | 0.9 | 1.7 | 0.00 | 0.00 | 0.00 | 55 | 1014.7 |
| 20260903020803 | 85 | 261 | 0.9 | 5.2 | 0.00 | 0.00 | 0.00 | 54 | 1014.8 |
| 20260903015802 | 85 | 119 | 0.9 | 2.6 | 0.00 | 0.00 | 0.00 | 54 | 1014.8 |
| 20260903014802 | 85 | 228 | 0.9 | 4.3 | 0.00 | 0.00 | 0.00 | 54 | 1014.6 |
| 20260903014302 | 86 | 311 | 0.9 | 4.3 | 0.00 | 0.00 | 0.00 | 53 | 1014.5 |
| 20260903013802 | 86 | 288 | 0.9 | 1.7 | 0.00 | 0.00 | 0.00 | 52 | 1014.5 |
| 20260903012802 | 86 | 247 | 0.9 | 2.6 | 0.00 | 0.00 | 0.00 | 50 | 1014.1 |
| 20260903012306 | 86 | 85 | 0.9 | 4.3 | 0.00 | 0.00 | 0.00 | 50 | 1014.0 |
| 20260903011803 | 87 | 281 | 0.9 | 1.7 | 0.00 | 0.00 | 0.00 | 49 | 1014.0 |
| 20260903010802 | 87 | 189 | 0.9 | 4.3 | 0.00 | 0.00 | 0.00 | 48 | 1014.2 |
| 20260903010303 | 87 | 348 | 0.9 | 1.7 | 0.00 | 0.00 | 0.00 | 47 | 1014.2 |
| 20260903005803 | 88 | 214 | 0.9 | 2.6 | 0.00 | 0.00 | 0.00 | 47 | 1014.2 |
| 20260903005306 | 88 | 86 | 0.9 | 6.1 | 0.00 | 0.00 | 0.00 | 47 | 1014.2 |
| 20260903004302 | 89 | 145 | 0.9 | 4.3 | 0.00 | 0.00 | 0.00 | 44 | 1014.1 |
| 20260903003802 | 89 | 277 | 0.9 | 2.6 | 0.00 | 0.00 | 0.00 | 43 | 1014.1 |
| 20260903003303 | 89 | 101 | 0.0 | 4.3 | 0.00 | 0.00 | 0.00 | 42 | 1014.1 |
| 20260903002802 | 90 | 170 | 0.9 | 4.3 | 0.00 | 0.00 | 0.00 | 41 | 1014.2 |
| 20260903002306 | 90 | 235 | 0.9 | 2.6 | 0.00 | 0.00 | 0.00 | 40 | 1014.2 |
| 20260903001803 | 91 | 103 | 0.9 | 2.6 | 0.00 | 0.00 | 0.00 | 38 | 1014.2 |
| 20260903001303 | 91 | 137 | 0.9 | 2.6 | 0.00 | 0.00 | 0.00 | 37 | 1014.2 |
| 20260903000303 | 92 | 163 | 1.7 | 1.7 | 0.00 | 0.00 | 0.00 | 36 | 1013.7 |
| 20260902235802 | 92 | 80 | 1.7 | 4.3 | 0.00 | 0.00 | 0.00 | 36 | 1013.7 |
| 20260902235305 | 92 | 88 | 0.9 | 2.6 | 0.00 | 0.00 | 0.00 | 35 | 1013.7 |
| 20260902233802 | 93 | 256 | 0.9 | 5.2 | 0.00 | 0.00 | 0.00 | 34 | 1013.9 |
| 20260902232802 | 94 | 350 | 1.7 | 4.3 | 0.00 | 0.00 | 0.00 | 32 | 1014.2 |
| 20260902232306 | 94 | 137 | 1.7 | 7.0 | 0.00 | 0.00 | 0.00 | 32 | 1014.2 |
| 20260902231302 | 96 | 100 | 1.7 | 5.2 | 0.00 | 0.00 | 0.00 | 29 | 1014.2 |
| 20260902230803 | 98 | 171 | 1.7 | 2.6 | 0.00 | 0.00 | 0.00 | 26 | 1014.1 |
| 20260902230302 | 100 | 129 | 0.9 | 4.3 | 0.00 | 0.00 | 0.00 | 25 | 1014.1 |
| 20260902225802 | 101 | 97 | 0.0 | 1.7 | 0.00 | 0.00 | 0.00 | 25 | 1014.1 |
| 20260902225306 | 102 | 249 | 0.9 | 2.6 | 0.00 | 0.00 | 0.00 | 24 | 1014.1 |
| 20260902224802 | 102 | 146 | 0.9 | 2.6 | 0.00 | 0.00 | 0.00 | 25 | 1013.9 |
| 20260902223803 | 102 | 144 | 1.7 | 4.3 | 0.00 | 0.00 | 0.00 | 24 | 1013.9 |
| 20260902223302 | 102 | 135 | 1.7 | 5.2 | 0.00 | 0.00 | 0.00 | 24 | 1013.9 |
| 20260902222803 | 101 | 100 | 1.7 | 5.2 | 0.00 | 0.00 | 0.00 | 26 | 1014.2 |
| 20260902222305 | 100 | 100 | 1.7 | 4.3 | 0.00 | 0.00 | 0.00 | 27 | 1014.1 |
| 20260902221803 | 100 | 100 | 1.7 | 5.2 | 0.00 | 0.00 | 0.00 | 27 | 1014.1 |
| 20260902221304 | 99 | 117 | 3.5 | 7.8 | 0.00 | 0.00 | 0.00 | 28 | 1014.1 |
| 20260902220802 | 100 | 57 | 4.3 | 12.2 | 0.00 | 0.00 | 0.00 | 28 | 1014.2 |
| 20260902215802 | 101 | 122 | 1.7 | 5.2 | 0.00 | 0.00 | 0.00 | 27 | 1014.2 |
| 20260902215306 | 100 | 122 | 1.7 | 6.1 | 0.00 | 0.00 | 0.00 | 28 | 1014.2 |
| 20260902214802 | 102 | 122 | 0.9 | 5.2 | 0.00 | 0.00 | 0.00 | 28 | 1014.4 |
| 20260902214303 | 102 | 201 | 2.6 | 5.2 | 0.00 | 0.00 | 0.00 | 27 | 1014.4 |
| 20260902213302 | 101 | 122 | 2.6 | 7.0 | 0.00 | 0.00 | 0.00 | 27 | 1014.4 |
| 20260902212803 | 101 | 57 | 1.7 | 5.2 | 0.00 | 0.00 | 0.00 | 29 | 1014.5 |
| 20260902210802 | 101 | 101 | 1.7 | 6.1 | 0.00 | 0.00 | 0.00 | 30 | 1014.8 |
| 20260902210302 | 101 | 302 | 3.5 | 5.2 | 0.00 | 0.00 | 0.00 | 32 | 1014.8 |
| 20260902205802 | 99 | 146 | 4.3 | 10.4 | 0.00 | 0.00 | 0.00 | 31 | 1014.8 |
| 20260902205306 | 100 | 126 | 2.6 | 10.4 | 0.00 | 0.00 | 0.00 | 31 | 1014.8 |
| 20260902204802 | 100 | 99 | 4.3 | 8.7 | 0.00 | 0.00 | 0.00 | 33 | 1014.9 |
| 20260902204302 | 99 | 110 | 3.5 | 8.7 | 0.00 | 0.00 | 0.00 | 32 | 1014.9 |
| 20260902203803 | 99 | 100 | 4.3 | 7.8 | 0.00 | 0.00 | 0.00 | 32 | 1014.9 |
| 20260902203304 | 99 | 135 | 2.6 | 12.2 | 0.00 | 0.00 | 0.00 | 33 | 1014.9 |
| 20260902202803 | 100 | 172 | 2.6 | 12.2 | 0.00 | 0.00 | 0.00 | 32 | 1015.0 |
| 20260902202306 | 99 | 25 | 4.3 | 6.1 | 0.00 | 0.00 | 0.00 | 33 | 1015.0 |
| 20260902201802 | 98 | 117 | 2.6 | 5.2 | 0.00 | 0.00 | 0.00 | 33 | 1015.0 |
| 20260902201302 | 98 | 226 | 1.7 | 4.3 | 0.00 | 0.00 | 0.00 | 34 | 1015.0 |
| 20260902200303 | 98 | 311 | 5.2 | 7.0 | 0.00 | 0.00 | 0.00 | 32 | 1015.4 |
| 20260902195802 | 99 | 117 | 3.5 | 8.7 | 0.00 | 0.00 | 0.00 | 32 | 1015.4 |
| 20260902195306 | 100 | 156 | 2.6 | 8.7 | 0.00 | 0.00 | 0.00 | 32 | 1015.4 |
| 20260902194802 | 100 | 143 | 2.6 | 4.3 | 0.00 | 0.00 | 0.00 | 33 | 1015.5 |
| 20260902194303 | 101 | 230 | 3.5 | 2.6 | 0.00 | 0.00 | 0.00 | 33 | 1015.5 |
| 20260902193803 | 99 | 214 | 4.3 | 6.1 | 0.00 | 0.00 | 0.00 | 33 | 1015.5 |
| 20260902193302 | 99 | 136 | 4.3 | 8.7 | 0.00 | 0.00 | 0.00 | 33 | 1015.5 |
| 20260902192802 | 100 | 100 | 2.6 | 10.4 | 0.00 | 0.00 | 0.00 | 33 | 1015.6 |
| 20260902192306 | 100 | 145 | 2.6 | 10.4 | 0.00 | 0.00 | 0.00 | 35 | 1015.6 |
| 20260902191803 | 98 | 146 | 1.7 | 5.2 | 0.00 | 0.00 | 0.00 | 36 | 1015.6 |
| 20260902191302 | 98 | 302 | 2.6 | 2.6 | 0.00 | 0.00 | 0.00 | 37 | 1015.6 |
| 20260902185802 | 97 | 123 | 4.3 | 6.1 | 0.00 | 0.00 | 0.00 | 36 | 1016.0 |
| 20260902185306 | 98 | 99 | 4.3 | 7.8 | 0.00 | 0.00 | 0.00 | 37 | 1016.0 |
| 20260902184803 | 97 | 145 | 4.3 | 7.8 | 0.00 | 0.00 | 0.00 | 37 | 1016.0 |
| 20260902184302 | 97 | 94 | 4.3 | 6.1 | 0.00 | 0.00 | 0.00 | 37 | 1016.0 |
| 20260902183802 | 97 | 100 | 4.3 | 13.0 | 0.00 | 0.00 | 0.00 | 38 | 1016.0 |
| 20260902183303 | 97 | 110 | 2.6 | 7.8 | 0.00 | 0.00 | 0.00 | 38 | 1016.0 |
| 20260902182802 | 97 | 144 | 1.7 | 5.2 | 0.00 | 0.00 | 0.00 | 40 | 1016.2 |
| 20260902182306 | 96 | 171 | 3.5 | 7.8 | 0.00 | 0.00 | 0.00 | 41 | 1016.2 |
| 20260902181802 | 94 | 99 | 4.3 | 7.8 | 0.00 | 0.00 | 0.00 | 42 | 1016.2 |
| 20260902181302 | 93 | 320 | 4.3 | 10.4 | 0.00 | 0.00 | 0.00 | 41 | 1016.2 |
| 20260902180303 | 92 | 117 | 5.2 | 7.0 | 0.00 | 0.00 | 0.00 | 43 | 1016.5 |
| 20260902175803 | 92 | 300 | 5.2 | 7.8 | 0.00 | 0.00 | 0.00 | 43 | 1016.5 |
| 20260902175307 | 92 | 273 | 4.3 | 11.3 | 0.00 | 0.00 | 0.00 | 44 | 1016.5 |
| 20260902174803 | 92 | 81 | 4.3 | 11.3 | 0.00 | 0.00 | 0.00 | 45 | 1016.8 |
| 20260902173802 | 91 | 260 | 2.6 | 6.1 | 0.00 | 0.00 | 0.00 | 48 | 1016.8 |
| 20260902173303 | 91 | 162 | 5.2 | 8.7 | 0.00 | 0.00 | 0.00 | 48 | 1016.8 |
| 20260902171303 | 89 | 341 | 5.2 | 13.0 | 0.00 | 0.00 | 0.00 | 48 | 1017.0 |
| 20260902170802 | 90 | 100 | 4.3 | 13.0 | 0.00 | 0.00 | 0.00 | 47 | 1017.1 |